| time (UTC) | temp F | wind direction | speed MPH | gust MPH | rain 1hr in | rain 24hr in | rain mn in | humidity % | barometer mb |
| 20260510192331 | 78 | 232 | 0.0 | 0.0 | 0.00 | 0.00 | 0.00 | 17 | 1025.7 |
| 20260510191828 | 77 | 218 | 0.0 | 0.0 | 0.00 | 0.00 | 0.00 | 18 | 1025.9 |
| 20260510191324 | 77 | 332 | 0.0 | 1.0 | 0.00 | 0.00 | 0.00 | 18 | 1026.1 |
| 20260510190822 | 75 | 260 | 0.0 | 0.0 | 0.00 | 0.00 | 0.00 | 19 | 1026.3 |
| 20260510190319 | 74 | 262 | 0.0 | 0.0 | 0.00 | 0.00 | 0.00 | 20 | 1026.4 |
| 20260510185814 | 73 | 315 | 0.0 | 0.0 | 0.00 | 0.00 | 0.00 | 21 | 1026.1 |
| 20260510185313 | 73 | 264 | 0.0 | 1.0 | 0.00 | 0.00 | 0.00 | 21 | 1026.1 |
| 20260510184810 | 73 | 269 | 2.0 | 7.0 | 0.00 | 0.00 | 0.00 | 21 | 1026.4 |
| 20260510184306 | 74 | 300 | 2.0 | 6.0 | 0.00 | 0.00 | 0.00 | 21 | 1026.1 |
| 20260510183801 | 73 | 303 | 0.0 | 0.0 | 0.00 | 0.00 | 0.00 | 21 | 1026.3 |
| 20260510183256 | 73 | 301 | 0.0 | 1.0 | 0.00 | 0.00 | 0.00 | 21 | 1026.4 |
| 20260510182753 | 73 | 293 | 1.0 | 3.0 | 0.00 | 0.00 | 0.00 | 21 | 1026.4 |
| 20260510182249 | 74 | 321 | 0.0 | 1.0 | 0.00 | 0.00 | 0.00 | 19 | 1026.3 |
| 20260510181746 | 75 | 307 | 0.0 | 0.0 | 0.00 | 0.00 | 0.00 | 19 | 1026.0 |
| 20260510181243 | 74 | 69 | 0.0 | 0.0 | 0.00 | 0.00 | 0.00 | 19 | 1025.8 |
| 20260510180739 | 74 | 38 | 0.0 | 0.0 | 0.00 | 0.00 | 0.00 | 19 | 1025.9 |
| 20260510180236 | 74 | 21 | 1.0 | 2.0 | 0.00 | 0.00 | 0.00 | 19 | 1025.9 |
| 20260510175733 | 74 | 15 | 0.0 | 0.0 | 0.00 | 0.00 | 0.00 | 19 | 1026.0 |
| 20260510175228 | 74 | 294 | 0.0 | 0.0 | 0.00 | 0.00 | 0.00 | 20 | 1026.1 |
| 20260510174726 | 74 | 37 | 0.0 | 0.0 | 0.00 | 0.00 | 0.00 | 19 | 1025.9 |
| 20260510174223 | 74 | 15 | 0.0 | 1.0 | 0.00 | 0.00 | 0.00 | 19 | 1026.1 |
| 20260510173719 | 74 | 344 | 0.0 | 0.0 | 0.00 | 0.00 | 0.00 | 19 | 1026.0 |
| 20260510173214 | 74 | 340 | 0.0 | 0.0 | 0.00 | 0.00 | 0.00 | 19 | 1026.1 |
| 20260510172704 | 73 | 313 | 1.0 | 5.0 | 0.00 | 0.00 | 0.00 | 19 | 1025.9 |
| 20260510172201 | 74 | 282 | 0.0 | 0.0 | 0.00 | 0.00 | 0.00 | 18 | 1026.0 |
| 20260510171658 | 74 | 81 | 0.0 | 0.0 | 0.00 | 0.00 | 0.00 | 22 | 1026.0 |
| 20260510171155 | 75 | 90 | 0.0 | 0.0 | 0.00 | 0.00 | 0.00 | 22 | 1026.0 |
| 20260510170652 | 73 | 99 | 0.0 | 0.0 | 0.00 | 0.00 | 0.00 | 22 | 1026.0 |
| 20260510170148 | 73 | 100 | 0.0 | 0.0 | 0.00 | 0.00 | 0.00 | 23 | 1025.8 |
| 20260510165644 | 73 | 99 | 0.0 | 0.0 | 0.00 | 0.00 | 0.00 | 23 | 1026.0 |
| 20260510165140 | 73 | 47 | 0.0 | 0.0 | 0.00 | 0.00 | 0.00 | 22 | 1025.9 |
| 20260510164638 | 73 | 105 | 1.0 | 3.0 | 0.00 | 0.00 | 0.00 | 22 | 1025.8 |
| 20260510164135 | 74 | 77 | 0.0 | 1.0 | 0.00 | 0.00 | 0.00 | 23 | 1025.8 |
| 20260510163630 | 74 | 87 | 3.0 | 7.0 | 0.00 | 0.00 | 0.00 | 24 | 1025.9 |
| 20260510163125 | 70 | 65 | 1.0 | 3.0 | 0.00 | 0.00 | 0.00 | 26 | 1025.7 |
| 20260510162620 | 68 | 106 | 6.0 | 10.0 | 0.00 | 0.00 | 0.00 | 29 | 1025.9 |
| 20260510162117 | 68 | 68 | 2.0 | 5.0 | 0.00 | 0.00 | 0.00 | 29 | 1025.9 |
| 20260510161612 | 69 | 92 | 3.0 | 5.0 | 0.00 | 0.00 | 0.00 | 28 | 1025.7 |
| 20260510161110 | 68 | 118 | 3.0 | 6.0 | 0.00 | 0.00 | 0.00 | 29 | 1025.8 |
| 20260510160607 | 69 | 83 | 4.0 | 11.0 | 0.00 | 0.00 | 0.00 | 29 | 1025.8 |
| 20260510160106 | 69 | 65 | 6.0 | 11.0 | 0.00 | 0.00 | 0.00 | 29 | 1025.7 |
| 20260510155603 | 70 | 73 | 4.0 | 7.0 | 0.00 | 0.00 | 0.00 | 28 | 1025.5 |
| 20260510155059 | 70 | 100 | 7.0 | 11.0 | 0.00 | 0.00 | 0.00 | 27 | 1025.4 |
| 20260510154555 | 72 | 55 | 10.0 | 16.0 | 0.00 | 0.00 | 0.00 | 27 | 1024.9 |
| 20260510154050 | 72 | 43 | 4.0 | 6.0 | 0.00 | 0.00 | 0.00 | 25 | 1025.3 |
| 20260510153545 | 71 | 70 | 9.0 | 14.0 | 0.00 | 0.00 | 0.00 | 27 | 1025.2 |
| 20260510153042 | 70 | 68 | 3.0 | 7.0 | 0.00 | 0.00 | 0.00 | 26 | 1024.8 |
| 20260510152539 | 71 | 86 | 3.0 | 7.0 | 0.00 | 0.00 | 0.00 | 25 | 1025.2 |
| 20260510152035 | 71 | 95 | 4.0 | 9.0 | 0.00 | 0.00 | 0.00 | 25 | 1025.2 |
| 20260510151532 | 70 | 77 | 8.0 | 13.0 | 0.00 | 0.00 | 0.00 | 26 | 1025.3 |
| 20260510151030 | 70 | 34 | 13.0 | 20.0 | 0.00 | 0.00 | 0.00 | 26 | 1025.1 |
| 20260510150525 | 69 | 25 | 11.0 | 17.0 | 0.00 | 0.00 | 0.00 | 26 | 1025.4 |
| 20260510150021 | 70 | 48 | 6.0 | 10.0 | 0.00 | 0.00 | 0.00 | 25 | 1025.4 |
| 20260510145518 | 70 | 73 | 4.0 | 8.0 | 0.00 | 0.00 | 0.00 | 25 | 1025.2 |
| 20260510145014 | 70 | 69 | 2.0 | 5.0 | 0.00 | 0.00 | 0.00 | 25 | 1024.7 |
| 20260510144511 | 70 | 73 | 6.0 | 13.0 | 0.00 | 0.00 | 0.00 | 25 | 1024.8 |
| 20260510144008 | 70 | 21 | 1.0 | 3.0 | 0.00 | 0.00 | 0.00 | 24 | 1024.7 |
| 20260510143503 | 69 | 92 | 4.0 | 6.0 | 0.00 | 0.00 | 0.00 | 25 | 1024.7 |
| 20260510143000 | 68 | 45 | 5.0 | 8.0 | 0.00 | 0.00 | 0.00 | 25 | 1024.7 |
| 20260510142456 | 68 | 31 | 2.0 | 6.0 | 0.00 | 0.00 | 0.00 | 25 | 1024.7 |
| 20260510141953 | 68 | 110 | 3.0 | 7.0 | 0.00 | 0.00 | 0.00 | 26 | 1024.6 |
| 20260510141450 | 67 | 55 | 1.0 | 3.0 | 0.00 | 0.00 | 0.00 | 26 | 1024.5 |
| 20260510140947 | 67 | 58 | 12.0 | 16.0 | 0.00 | 0.00 | 0.00 | 26 | 1024.5 |
| 20260510140443 | 67 | 74 | 1.0 | 5.0 | 0.00 | 0.00 | 0.00 | 25 | 1024.3 |
| 20260510135942 | 67 | 63 | 1.0 | 2.0 | 0.00 | 0.00 | 0.00 | 25 | 1024.1 |
| 20260510135438 | 66 | 87 | 3.0 | 6.0 | 0.00 | 0.00 | 0.00 | 25 | 1024.1 |
| 20260510134935 | 66 | 57 | 4.0 | 7.0 | 0.00 | 0.00 | 0.00 | 26 | 1024.0 |
| 20260510134432 | 66 | 83 | 1.0 | 2.0 | 0.00 | 0.00 | 0.00 | 25 | 1023.9 |
| 20260510133929 | 65 | 75 | 1.0 | 3.0 | 0.00 | 0.00 | 0.00 | 25 | 1024.1 |
| 20260510133425 | 65 | 70 | 2.0 | 5.0 | 0.00 | 0.00 | 0.00 | 25 | 1024.2 |
| 20260510132920 | 66 | 76 | 7.0 | 13.0 | 0.00 | 0.00 | 0.00 | 24 | 1024.0 |
| 20260510132418 | 67 | 81 | 1.0 | 2.0 | 0.00 | 0.00 | 0.00 | 22 | 1024.1 |
| 20260510131915 | 67 | 82 | 5.0 | 9.0 | 0.00 | 0.00 | 0.00 | 21 | 1023.7 |
| 20260510131412 | 67 | 88 | 2.0 | 7.0 | 0.00 | 0.00 | 0.00 | 20 | 1023.6 |
| 20260510130908 | 65 | 49 | 5.0 | 9.0 | 0.00 | 0.00 | 0.00 | 21 | 1023.7 |
| 20260510130406 | 64 | 42 | 1.0 | 2.0 | 0.00 | 0.00 | 0.00 | 22 | 1023.9 |
| 20260510125902 | 64 | 121 | 0.0 | 0.0 | 0.00 | 0.00 | 0.00 | 23 | 1023.4 |
| 20260510125358 | 64 | 54 | 0.0 | 0.0 | 0.00 | 0.00 | 0.00 | 22 | 1023.6 |
| 20260510124855 | 64 | 38 | 0.0 | 0.0 | 0.00 | 0.00 | 0.00 | 23 | 1023.7 |
| 20260510124352 | 63 | 25 | 0.0 | 0.0 | 0.00 | 0.00 | 0.00 | 23 | 1023.6 |
| 20260510123848 | 62 | 54 | 0.0 | 0.0 | 0.00 | 0.00 | 0.00 | 25 | 1023.4 |
| 20260510123343 | 62 | 66 | 0.0 | 0.0 | 0.00 | 0.00 | 0.00 | 24 | 1023.4 |
| 20260510122840 | 62 | 72 | 0.0 | 0.0 | 0.00 | 0.00 | 0.00 | 25 | 1023.1 |
| 20260510122336 | 62 | 85 | 0.0 | 0.0 | 0.00 | 0.00 | 0.00 | 24 | 1022.9 |
| 20260510121832 | 62 | 59 | 0.0 | 0.0 | 0.00 | 0.00 | 0.00 | 25 | 1022.9 |
| 20260510121330 | 62 | 124 | 0.0 | 1.0 | 0.00 | 0.00 | 0.00 | 23 | 1022.9 |
| 20260510120827 | 61 | 71 | 0.0 | 0.0 | 0.00 | 0.00 | 0.00 | 26 | 1023.3 |
| 20260510120324 | 62 | 73 | 0.0 | 0.0 | 0.00 | 0.00 | 0.00 | 25 | 1023.0 |
| 20260510115819 | 63 | 74 | 0.0 | 0.0 | 0.00 | 0.00 | 0.00 | 24 | 1022.9 |
| 20260510115317 | 63 | 116 | 0.0 | 0.0 | 0.00 | 0.00 | 0.00 | 23 | 1022.8 |
| 20260510114813 | 62 | 103 | 0.0 | 0.0 | 0.00 | 0.00 | 0.00 | 24 | 1022.5 |
| 20260510114310 | 60 | 101 | 0.0 | 0.0 | 0.00 | 0.00 | 0.00 | 25 | 1022.8 |
| 20260510113806 | 60 | 107 | 0.0 | 0.0 | 0.00 | 0.00 | 0.00 | 26 | 1022.8 |
| 20260510113303 | 60 | 96 | 0.0 | 0.0 | 0.00 | 0.00 | 0.00 | 26 | 1022.8 |
| 20260510112759 | 59 | 91 | 0.0 | 0.0 | 0.00 | 0.00 | 0.00 | 26 | 1022.8 |
| 20260510112256 | 59 | 88 | 0.0 | 0.0 | 0.00 | 0.00 | 0.00 | 27 | 1022.7 |
| 20260510111752 | 59 | 92 | 0.0 | 0.0 | 0.00 | 0.00 | 0.00 | 27 | 1022.7 |
| 20260510111249 | 59 | 100 | 0.0 | 0.0 | 0.00 | 0.00 | 0.00 | 26 | 1022.4 |
| 20260510110748 | 59 | 92 | 0.0 | 0.0 | 0.00 | 0.00 | 0.00 | 27 | 1022.2 |
| 20260510110247 | 59 | 91 | 0.0 | 0.0 | 0.00 | 0.00 | 0.00 | 26 | 1022.2 |
| 20260510105747 | 59 | 93 | 0.0 | 1.0 | 0.00 | 0.00 | 0.00 | 26 | 1022.3 |
| 20260510105241 | 59 | 86 | 0.0 | 0.0 | 0.00 | 0.00 | 0.00 | 26 | 1022.3 |
| 20260510104738 | 60 | 91 | 0.0 | 0.0 | 0.00 | 0.00 | 0.00 | 27 | 1022.2 |
| 20260510104236 | 60 | 98 | 0.0 | 0.0 | 0.00 | 0.00 | 0.00 | 26 | 1022.3 |
| 20260510103731 | 59 | 100 | 0.0 | 0.0 | 0.00 | 0.00 | 0.00 | 27 | 1022.2 |
| 20260510103229 | 60 | 99 | 0.0 | 0.0 | 0.00 | 0.00 | 0.00 | 27 | 1022.3 |
| 20260510102723 | 60 | 101 | 0.0 | 0.0 | 0.00 | 0.00 | 0.00 | 26 | 1022.1 |
| 20260510102219 | 59 | 73 | 0.0 | 0.0 | 0.00 | 0.00 | 0.00 | 27 | 1021.9 |
| 20260510101717 | 60 | 81 | 0.0 | 0.0 | 0.00 | 0.00 | 0.00 | 27 | 1021.9 |
| 20260510101215 | 59 | 76 | 0.0 | 0.0 | 0.00 | 0.00 | 0.00 | 27 | 1022.1 |
| 20260510100710 | 59 | 96 | 0.0 | 0.0 | 0.00 | 0.00 | 0.00 | 27 | 1021.8 |
| 20260510100209 | 60 | 88 | 0.0 | 0.0 | 0.00 | 0.00 | 0.00 | 27 | 1021.8 |
| 20260510095704 | 60 | 79 | 0.0 | 0.0 | 0.00 | 0.00 | 0.00 | 27 | 1021.9 |
| 20260510095159 | 60 | 90 | 0.0 | 0.0 | 0.00 | 0.00 | 0.00 | 26 | 1021.7 |
| 20260510094657 | 60 | 100 | 0.0 | 0.0 | 0.00 | 0.00 | 0.00 | 26 | 1021.7 |
| 20260510094154 | 60 | 92 | 0.0 | 0.0 | 0.00 | 0.00 | 0.00 | 26 | 1021.7 |
| 20260510093650 | 60 | 83 | 0.0 | 0.0 | 0.00 | 0.00 | 0.00 | 26 | 1021.7 |
| 20260510093148 | 60 | 80 | 0.0 | 0.0 | 0.00 | 0.00 | 0.00 | 26 | 1021.7 |
| 20260510092644 | 60 | 90 | 0.0 | 0.0 | 0.00 | 0.00 | 0.00 | 27 | 1021.6 |
| 20260510092139 | 60 | 80 | 0.0 | 0.0 | 0.00 | 0.00 | 0.00 | 26 | 1021.5 |
| 20260510091635 | 61 | 91 | 0.0 | 0.0 | 0.00 | 0.00 | 0.00 | 26 | 1021.5 |
| 20260510091131 | 61 | 97 | 0.0 | 0.0 | 0.00 | 0.00 | 0.00 | 26 | 1021.3 |
| 20260510090628 | 62 | 76 | 0.0 | 0.0 | 0.00 | 0.00 | 0.00 | 25 | 1021.3 |
| 20260510090124 | 63 | 84 | 0.0 | 0.0 | 0.00 | 0.00 | 0.00 | 24 | 1021.3 |
| 20260510085614 | 65 | 59 | 0.0 | 0.0 | 0.00 | 0.00 | 0.00 | 23 | 1021.3 |
| 20260510085110 | 65 | 54 | 0.0 | 0.0 | 0.00 | 0.00 | 0.00 | 22 | 1021.1 |
| 20260510084607 | 65 | 62 | 0.0 | 0.0 | 0.00 | 0.00 | 0.00 | 22 | 1021.1 |
| 20260510084103 | 64 | 61 | 0.0 | 0.0 | 0.00 | 0.00 | 0.00 | 23 | 1021.3 |
| 20260510083600 | 65 | 81 | 0.0 | 0.0 | 0.00 | 0.00 | 0.00 | 22 | 1021.0 |
| 20260510083056 | 65 | 87 | 0.0 | 0.0 | 0.00 | 0.00 | 0.00 | 22 | 1020.9 |
| 20260510082553 | 67 | 72 | 0.0 | 0.0 | 0.00 | 0.00 | 0.00 | 21 | 1020.6 |
| 20260510082048 | 66 | 58 | 0.0 | 0.0 | 0.00 | 0.00 | 0.00 | 21 | 1020.6 |
| 20260510081543 | 66 | 66 | 0.0 | 0.0 | 0.00 | 0.00 | 0.00 | 21 | 1020.6 |
| 20260510081039 | 65 | 70 | 0.0 | 0.0 | 0.00 | 0.00 | 0.00 | 22 | 1020.5 |
| 20260510080538 | 66 | 73 | 0.0 | 0.0 | 0.00 | 0.00 | 0.00 | 21 | 1020.6 |
| 20260510080036 | 66 | 75 | 0.0 | 0.0 | 0.00 | 0.00 | 0.00 | 21 | 1020.6 |
| 20260510075533 | 68 | 67 | 0.0 | 0.0 | 0.00 | 0.00 | 0.00 | 21 | 1020.6 |
| 20260510075030 | 70 | 31 | 0.0 | 0.0 | 0.00 | 0.00 | 0.00 | 19 | 1020.7 |
| 20260510074528 | 71 | 21 | 0.0 | 0.0 | 0.00 | 0.00 | 0.00 | 17 | 1020.6 |
| 20260510074023 | 72 | 323 | 0.0 | 0.0 | 0.00 | 0.00 | 0.00 | 17 | 1020.6 |
| 20260510073519 | 72 | 20 | 0.0 | 0.0 | 0.00 | 0.00 | 0.00 | 17 | 1020.7 |
| 20260510073016 | 72 | 48 | 0.0 | 0.0 | 0.00 | 0.00 | 0.00 | 17 | 1020.7 |
| 20260510072513 | 72 | 81 | 0.0 | 0.0 | 0.00 | 0.00 | 0.00 | 18 | 1020.9 |
| 20260510072008 | 74 | 30 | 0.0 | 0.0 | 0.00 | 0.00 | 0.00 | 16 | 1020.9 |
| 20260510071504 | 70 | 45 | 3.0 | 8.0 | 0.00 | 0.00 | 0.00 | 19 | 1021.0 |
| 20260510071003 | 68 | 93 | 0.0 | 1.0 | 0.00 | 0.00 | 0.00 | 21 | 1021.2 |
| 20260510070459 | 68 | 80 | 0.0 | 1.0 | 0.00 | 0.00 | 0.00 | 22 | 1021.3 |
| 20260510065955 | 68 | 76 | 0.0 | 0.0 | 0.00 | 0.00 | 0.00 | 21 | 1021.1 |
| 20260510065452 | 68 | 61 | 0.0 | 0.0 | 0.00 | 0.00 | 0.00 | 22 | 1020.9 |
| 20260510064948 | 68 | 94 | 0.0 | 0.0 | 0.00 | 0.00 | 0.00 | 21 | 1021.1 |
| 20260510064446 | 68 | 58 | 1.0 | 3.0 | 0.00 | 0.00 | 0.00 | 21 | 1021.3 |
| 20260510063942 | 67 | 38 | 0.0 | 0.0 | 0.00 | 0.00 | 0.00 | 21 | 1021.3 |
| 20260510063438 | 66 | 68 | 0.0 | 0.0 | 0.00 | 0.00 | 0.00 | 21 | 1021.2 |
| 20260510062936 | 66 | 72 | 0.0 | 0.0 | 0.00 | 0.00 | 0.00 | 21 | 1021.1 |
| 20260510062431 | 65 | 85 | 0.0 | 0.0 | 0.00 | 0.00 | 0.00 | 21 | 1021.3 |
| 20260510061926 | 66 | 74 | 0.0 | 0.0 | 0.00 | 0.00 | 0.00 | 21 | 1021.5 |
| 20260510061424 | 66 | 67 | 0.0 | 1.0 | 0.00 | 0.00 | 0.00 | 20 | 1021.2 |
| 20260510060920 | 66 | 60 | 0.0 | 0.0 | 0.00 | 0.00 | 0.00 | 20 | 1021.2 |
| 20260510060417 | 66 | 71 | 0.0 | 0.0 | 0.00 | 0.00 | 0.00 | 20 | 1021.5 |
| 20260510055913 | 66 | 73 | 0.0 | 0.0 | 0.00 | 0.00 | 0.00 | 20 | 1021.2 |
| 20260510055408 | 67 | 109 | 0.0 | 0.0 | 0.00 | 0.00 | 0.00 | 20 | 1021.3 |
| 20260510054901 | 67 | 114 | 0.0 | 1.0 | 0.00 | 0.00 | 0.00 | 19 | 1021.3 |
| 20260510054356 | 67 | 73 | 0.0 | 0.0 | 0.00 | 0.00 | 0.00 | 19 | 1021.1 |
| 20260510053851 | 69 | 86 | 0.0 | 0.0 | 0.00 | 0.00 | 0.00 | 18 | 1021.3 |
| 20260510053347 | 69 | 73 | 0.0 | 1.0 | 0.00 | 0.00 | 0.00 | 18 | 1021.0 |
| 20260510052844 | 69 | 86 | 0.0 | 0.0 | 0.00 | 0.00 | 0.00 | 17 | 1021.2 |
| 20260510052339 | 69 | 94 | 0.0 | 0.0 | 0.00 | 0.00 | 0.00 | 18 | 1021.3 |
| 20260510051836 | 69 | 88 | 0.0 | 0.0 | 0.00 | 0.00 | 0.00 | 17 | 1021.2 |
| 20260510051333 | 70 | 75 | 0.0 | 0.0 | 0.00 | 0.00 | 0.00 | 17 | 1021.1 |
| 20260510050830 | 69 | 86 | 0.0 | 0.0 | 0.00 | 0.00 | 0.00 | 17 | 1021.3 |
| 20260510050326 | 69 | 60 | 0.0 | 0.0 | 0.00 | 0.00 | 0.00 | 18 | 1021.3 |
| 20260510045823 | 68 | 70 | 0.0 | 0.0 | 0.00 | 0.00 | 0.00 | 18 | 1021.1 |
| 20260510045320 | 68 | 70 | 0.0 | 0.0 | 0.00 | 0.00 | 0.00 | 18 | 1021.3 |
| 20260510044817 | 69 | 66 | 0.0 | 0.0 | 0.00 | 0.00 | 0.00 | 18 | 1021.3 |
| 20260510044314 | 69 | 73 | 0.0 | 0.0 | 0.00 | 0.00 | 0.00 | 18 | 1021.5 |
| 20260510043810 | 69 | 80 | 0.0 | 0.0 | 0.00 | 0.00 | 0.00 | 18 | 1021.3 |
| 20260510043306 | 68 | 78 | 0.0 | 0.0 | 0.00 | 0.00 | 0.00 | 18 | 1021.3 |
| 20260510042804 | 68 | 68 | 0.0 | 0.0 | 0.00 | 0.00 | 0.00 | 18 | 1021.2 |
| 20260510042259 | 69 | 70 | 0.0 | 0.0 | 0.00 | 0.00 | 0.00 | 18 | 1021.2 |
| 20260510041756 | 69 | 84 | 0.0 | 0.0 | 0.00 | 0.00 | 0.00 | 18 | 1021.5 |
| 20260510041253 | 69 | 73 | 0.0 | 0.0 | 0.00 | 0.00 | 0.00 | 18 | 1021.2 |
| 20260510040751 | 70 | 57 | 0.0 | 0.0 | 0.00 | 0.00 | 0.00 | 18 | 1021.5 |
| 20260510040242 | 70 | 72 | 0.0 | 0.0 | 0.00 | 0.00 | 0.00 | 17 | 1021.5 |
| 20260510035737 | 69 | 56 | 0.0 | 1.0 | 0.00 | 0.00 | 0.00 | 17 | 1021.3 |
| 20260510035233 | 68 | 60 | 0.0 | 0.0 | 0.00 | 0.00 | 0.00 | 18 | 1021.2 |
| 20260510034729 | 67 | 65 | 0.0 | 0.0 | 0.00 | 0.00 | 0.00 | 19 | 1021.2 |
| 20260510034228 | 66 | 48 | 0.0 | 0.0 | 0.00 | 0.00 | 0.00 | 19 | 1021.0 |
| 20260510033723 | 66 | 51 | 0.0 | 0.0 | 0.00 | 0.00 | 0.00 | 20 | 1021.1 |
| 20260510033221 | 67 | 67 | 0.0 | 0.0 | 0.00 | 0.00 | 0.00 | 19 | 1021.0 |
| 20260510032717 | 68 | 70 | 0.0 | 0.0 | 0.00 | 0.00 | 0.00 | 19 | 1021.0 |
| 20260510032213 | 68 | 89 | 0.0 | 0.0 | 0.00 | 0.00 | 0.00 | 19 | 1020.7 |
| 20260510031708 | 68 | 77 | 0.0 | 0.0 | 0.00 | 0.00 | 0.00 | 19 | 1021.0 |
| 20260510031205 | 68 | 73 | 0.0 | 0.0 | 0.00 | 0.00 | 0.00 | 19 | 1020.7 |
| 20260510030704 | 68 | 69 | 0.0 | 0.0 | 0.00 | 0.00 | 0.00 | 19 | 1021.0 |
| 20260510030202 | 68 | 87 | 0.0 | 0.0 | 0.00 | 0.00 | 0.00 | 19 | 1021.0 |
| 20260510025659 | 68 | 83 | 0.0 | 0.0 | 0.00 | 0.00 | 0.00 | 19 | 1020.7 |
| 20260510025156 | 69 | 81 | 0.0 | 0.0 | 0.00 | 0.00 | 0.00 | 19 | 1020.7 |
| 20260510024653 | 69 | 80 | 0.0 | 0.0 | 0.00 | 0.00 | 0.00 | 19 | 1020.6 |
| 20260510024150 | 68 | 77 | 0.0 | 0.0 | 0.00 | 0.00 | 0.00 | 19 | 1020.6 |
| 20260510023645 | 69 | 88 | 0.0 | 0.0 | 0.00 | 0.00 | 0.00 | 19 | 1020.7 |
| 20260510023142 | 69 | 74 | 0.0 | 0.0 | 0.00 | 0.00 | 0.00 | 19 | 1020.4 |
| 20260510022637 | 69 | 78 | 0.0 | 0.0 | 0.00 | 0.00 | 0.00 | 19 | 1020.5 |
| 20260510022132 | 69 | 79 | 0.0 | 0.0 | 0.00 | 0.00 | 0.00 | 19 | 1020.4 |
| 20260510021627 | 69 | 86 | 0.0 | 0.0 | 0.00 | 0.00 | 0.00 | 19 | 1020.3 |
| 20260510021126 | 69 | 92 | 0.0 | 0.0 | 0.00 | 0.00 | 0.00 | 19 | 1020.4 |
| 20260510020620 | 71 | 171 | 0.0 | 0.0 | 0.00 | 0.00 | 0.00 | 18 | 1020.1 |
| 20260510020115 | 73 | 202 | 0.0 | 0.0 | 0.00 | 0.00 | 0.00 | 17 | 1020.3 |
| 20260510015611 | 74 | 214 | 0.0 | 0.0 | 0.00 | 0.00 | 0.00 | 16 | 1020.1 |
| 20260510015108 | 74 | 218 | 0.0 | 0.0 | 0.00 | 0.00 | 0.00 | 15 | 1020.4 |
| 20260510014603 | 75 | 214 | 0.0 | 0.0 | 0.00 | 0.00 | 0.00 | 16 | 1020.0 |
| 20260510014101 | 75 | 222 | 0.0 | 0.0 | 0.00 | 0.00 | 0.00 | 15 | 1020.0 |
| 20260510013555 | 76 | 249 | 0.0 | 0.0 | 0.00 | 0.00 | 0.00 | 15 | 1020.0 |
| 20260510013051 | 76 | 245 | 0.0 | 0.0 | 0.00 | 0.00 | 0.00 | 15 | 1019.8 |
| 20260510012545 | 77 | 230 | 0.0 | 0.0 | 0.00 | 0.00 | 0.00 | 15 | 1019.9 |
| 20260510012042 | 77 | 242 | 0.0 | 0.0 | 0.00 | 0.00 | 0.00 | 14 | 1019.9 |
| 20260510011541 | 78 | 247 | 0.0 | 0.0 | 0.00 | 0.00 | 0.00 | 14 | 1019.7 |
| 20260510011037 | 78 | 236 | 0.0 | 0.0 | 0.00 | 0.00 | 0.00 | 13 | 1019.8 |
| 20260510010534 | 79 | 230 | 0.0 | 0.0 | 0.00 | 0.00 | 0.00 | 14 | 1019.9 |
| 20260510010032 | 80 | 272 | 0.0 | 0.0 | 0.00 | 0.00 | 0.00 | 13 | 1019.9 |
| 20260510005527 | 80 | 259 | 0.0 | 1.0 | 0.00 | 0.00 | 0.00 | 13 | 1019.9 |
| 20260510005025 | 81 | 244 | 3.0 | 8.0 | 0.00 | 0.00 | 0.00 | 13 | 1020.0 |
| 20260510004522 | 81 | 224 | 0.0 | 0.0 | 0.00 | 0.00 | 0.00 | 13 | 1019.9 |
| 20260510004021 | 81 | 260 | 0.0 | 0.0 | 0.00 | 0.00 | 0.00 | 13 | 1019.9 |
| 20260510003516 | 81 | 224 | 0.0 | 2.0 | 0.00 | 0.00 | 0.00 | 13 | 1019.8 |
| 20260510003012 | 82 | 270 | 1.0 | 3.0 | 0.00 | 0.00 | 0.00 | 13 | 1019.8 |
| 20260510002508 | 82 | 283 | 2.0 | 5.0 | 0.00 | 0.00 | 0.00 | 12 | 1019.9 |
| 20260510002005 | 82 | 266 | 0.0 | 0.0 | 0.00 | 0.00 | 0.00 | 12 | 1020.0 |
| 20260510001502 | 83 | 318 | 5.0 | 7.0 | 0.00 | 0.00 | 0.00 | 12 | 1020.1 |
| 20260510001000 | 83 | 271 | 0.0 | 0.0 | 0.00 | 0.00 | 0.00 | 11 | 1019.9 |
| 20260510000455 | 83 | 218 | 0.0 | 0.0 | 0.00 | 0.00 | 0.00 | 12 | 1019.9 |
| 20260509235952 | 82 | 276 | 0.0 | 0.0 | 0.00 | 0.00 | 0.00 | 12 | 1019.9 |
| 20260509235449 | 83 | 237 | 0.0 | 0.0 | 0.00 | 0.00 | 0.00 | 12 | 1020.1 |
| 20260509234945 | 83 | 260 | 3.0 | 7.0 | 0.00 | 0.00 | 0.00 | 12 | 1020.1 |
| 20260509234442 | 82 | 300 | 0.0 | 1.0 | 0.00 | 0.00 | 0.00 | 12 | 1020.3 |
| 20260509233940 | 82 | 276 | 0.0 | 0.0 | 0.00 | 0.00 | 0.00 | 12 | 1020.1 |
| 20260509233437 | 83 | 277 | 0.0 | 0.0 | 0.00 | 0.00 | 0.00 | 12 | 1020.1 |
| 20260509232933 | 82 | 299 | 0.0 | 1.0 | 0.00 | 0.00 | 0.00 | 12 | 1020.0 |
| 20260509232431 | 82 | 260 | 6.0 | 8.0 | 0.00 | 0.00 | 0.00 | 12 | 1020.1 |
| 20260509231926 | 84 | 238 | 1.0 | 2.0 | 0.00 | 0.00 | 0.00 | 11 | 1020.1 |
| 20260509231424 | 83 | 294 | 0.0 | 0.0 | 0.00 | 0.00 | 0.00 | 11 | 1020.4 |
| 20260509230922 | 84 | 242 | 2.0 | 3.0 | 0.00 | 0.00 | 0.00 | 11 | 1020.3 |
| 20260509230418 | 85 | 253 | 0.0 | 0.0 | 0.00 | 0.00 | 0.00 | 11 | 1020.3 |
| 20260509225914 | 84 | 12 | 0.0 | 0.0 | 0.00 | 0.00 | 0.00 | 11 | 1020.5 |
| 20260509225411 | 83 | 238 | 0.0 | 0.0 | 0.00 | 0.00 | 0.00 | 13 | 1020.4 |
| 20260509224907 | 83 | 183 | 0.0 | 0.0 | 0.00 | 0.00 | 0.00 | 12 | 1020.1 |
| 20260509224402 | 84 | 213 | 0.0 | 0.0 | 0.00 | 0.00 | 0.00 | 12 | 1020.4 |
| 20260509223900 | 82 | 243 | 0.0 | 0.0 | 0.00 | 0.00 | 0.00 | 13 | 1020.5 |
| 20260509223351 | 82 | 263 | 1.0 | 3.0 | 0.00 | 0.00 | 0.00 | 12 | 1020.6 |
| 20260509222848 | 83 | 282 | 4.0 | 6.0 | 0.00 | 0.00 | 0.00 | 12 | 1020.7 |
| 20260509222343 | 83 | 244 | 0.0 | 0.0 | 0.00 | 0.00 | 0.00 | 12 | 1020.7 |
| 20260509221839 | 82 | 290 | 1.0 | 3.0 | 0.00 | 0.00 | 0.00 | 12 | 1020.6 |
| 20260509221336 | 82 | 236 | 7.0 | 9.0 | 0.00 | 0.00 | 0.00 | 12 | 1020.9 |
| 20260509220831 | 83 | 243 | 0.0 | 1.0 | 0.00 | 0.00 | 0.00 | 12 | 1021.0 |
| 20260509220328 | 84 | 271 | 0.0 | 0.0 | 0.00 | 0.00 | 0.00 | 12 | 1021.1 |
| 20260509215823 | 82 | 251 | 2.0 | 7.0 | 0.00 | 0.00 | 0.00 | 13 | 1020.9 |
| 20260509215320 | 83 | 219 | 0.0 | 0.0 | 0.00 | 0.00 | 0.00 | 12 | 1021.0 |
| 20260509214817 | 82 | 312 | 0.0 | 0.0 | 0.00 | 0.00 | 0.00 | 12 | 1021.3 |
| 20260509214314 | 83 | 258 | 3.0 | 6.0 | 0.00 | 0.00 | 0.00 | 12 | 1021.1 |
| 20260509213811 | 82 | 201 | 0.0 | 0.0 | 0.00 | 0.00 | 0.00 | 13 | 1021.3 |
| 20260509213307 | 82 | 252 | 0.0 | 0.0 | 0.00 | 0.00 | 0.00 | 12 | 1021.6 |
| 20260509212805 | 82 | 208 | 0.0 | 0.0 | 0.00 | 0.00 | 0.00 | 13 | 1021.6 |
| 20260509212305 | 82 | 281 | 1.0 | 3.0 | 0.00 | 0.00 | 0.00 | 12 | 1021.7 |
| 20260509211757 | 82 | 236 | 0.0 | 0.0 | 0.00 | 0.00 | 0.00 | 12 | 1021.8 |
| 20260509211254 | 84 | 255 | 0.0 | 0.0 | 0.00 | 0.00 | 0.00 | 13 | 1021.9 |
| 20260509210750 | 82 | 261 | 1.0 | 3.0 | 0.00 | 0.00 | 0.00 | 12 | 1021.9 |
| 20260509210248 | 81 | 261 | 0.0 | 2.0 | 0.00 | 0.00 | 0.00 | 12 | 1022.2 |
| 20260509205747 | 81 | 266 | 2.0 | 5.0 | 0.00 | 0.00 | 0.00 | 13 | 1022.3 |
| 20260509205242 | 81 | 302 | 5.0 | 10.0 | 0.00 | 0.00 | 0.00 | 13 | 1022.2 |
| 20260509204738 | 82 | 297 | 0.0 | 0.0 | 0.00 | 0.00 | 0.00 | 12 | 1022.2 |
| 20260509204235 | 81 | 230 | 6.0 | 9.0 | 0.00 | 0.00 | 0.00 | 13 | 1022.2 |
| 20260509203731 | 82 | 257 | 6.0 | 8.0 | 0.00 | 0.00 | 0.00 | 13 | 1022.4 |
| 20260509203229 | 83 | 303 | 5.0 | 10.0 | 0.00 | 0.00 | 0.00 | 13 | 1022.5 |
| 20260509202725 | 82 | 261 | 4.0 | 6.0 | 0.00 | 0.00 | 0.00 | 13 | 1022.4 |
| 20260509202221 | 81 | 237 | 2.0 | 5.0 | 0.00 | 0.00 | 0.00 | 13 | 1022.7 |
| 20260509201715 | 81 | 268 | 7.0 | 9.0 | 0.00 | 0.00 | 0.00 | 13 | 1022.5 |
| 20260509201212 | 81 | 233 | 7.0 | 10.0 | 0.00 | 0.00 | 0.00 | 13 | 1022.7 |
| 20260509200709 | 82 | 292 | 3.0 | 6.0 | 0.00 | 0.00 | 0.00 | 13 | 1022.8 |
| 20260509200203 | 81 | 287 | 5.0 | 7.0 | 0.00 | 0.00 | 0.00 | 14 | 1022.9 |
| 20260509195659 | 82 | 251 | 0.0 | 0.0 | 0.00 | 0.00 | 0.00 | 14 | 1022.8 |
| 20260509195155 | 81 | 268 | 0.0 | 0.0 | 0.00 | 0.00 | 0.00 | 14 | 1022.8 |
| 20260509194649 | 80 | 236 | 0.0 | 1.0 | 0.00 | 0.00 | 0.00 | 15 | 1022.7 |
| 20260509194146 | 81 | 228 | 5.0 | 8.0 | 0.00 | 0.00 | 0.00 | 14 | 1022.9 |
| 20260509193642 | 80 | 290 | 1.0 | 1.0 | 0.00 | 0.00 | 0.00 | 14 | 1023.0 |
| 20260509193138 | 80 | 258 | 1.0 | 1.0 | 0.00 | 0.00 | 0.00 | 15 | 1022.9 |
| 20260509192635 | 80 | 227 | 1.0 | 6.0 | 0.00 | 0.00 | 0.00 | 15 | 1022.9 |